This demonstration page uses our WeatherBlox Daily Observations layout. Learn more.

Left ArrowRight Arrow

41.86663, -103.66717

Hourly Observations for April 8, 2017

Temp ( °F °C ) Dew Point ( °F °C ) Humidity (%) Winds ( mph kmh ) Pressure ( in mb ) Visibility ( mi km ) Precip ( " mm )
12:53 am 00:53 Clear 54 12.2 35 1.7 49 49 NW 6 9 29.57 1001 10 16.0934 N/A
1:53 am 01:53 Clear 52 11.1 36 2.2 55 55 NNW 8 13 29.57 1001 10 16.0934 N/A
2:53 am 02:53 Clear 49 9.4 36 2.2 61 61 E 6 9 29.57 1001 10 16.0934 N/A
3:53 am 03:53 Clear 48 8.9 36 2.2 63 63 N N/A 29.57 1001 10 16.0934 N/A
4:53 am 04:53 Clear 45 7.2 37 2.8 74 74 N N/A 29.57 1002 10 16.0934 N/A
5:53 am 05:53 Clear 46 7.8 37 2.8 71 71 N 5 7 29.58 1002 10 16.0934 N/A
6:53 am 06:53 Sunny 45 7.2 36 2.2 71 71 N N/A 29.61 1003 10 16.0934 N/A
7:53 am 07:53 Sunny 47 8.3 39 3.9 74 74 undefined N/A 29.62 1003 10 16.0934 N/A
8:53 am 08:53 Sunny 53 11.7 40 4.4 61 61 S 8 13 29.62 1003 10 16.0934 N/A
9:53 am 09:53 Sunny 57 13.9 41 5 55 55 ENE 5 7 29.6 1003 10 16.0934 N/A
10:53 am 10:53 Sunny 65 18.3 40 4.4 40 40 E 15 24 29.56 1001 10 16.0934 N/A
11:53 am 11:53 Sunny 69 20.6 38 3.3 32 32 E 16 26 29.54 1001 10 16.0934 N/A
12:53 pm 12:53 Sunny 72 22.2 37 2.8 28 28 SE 10 17 29.52 1000 10 16.0934 N/A
1:53 pm 13:53 Sunny 73 22.8 38 3.3 28 28 ESE 21 33 29.48 998 10 16.0934 N/A
2:53 pm 14:53 Sunny 75 23.9 40 4.4 28 28 SE 14 22 29.45 997 10 16.0934 N/A
3:30 pm 15:30 Sunny 77 25 28 -2.2 16 16 S 16 26 29.26 991 10 16.0934 N/A
3:53 pm 15:53 Mostly Sunny 77 25 24 -4.4 14 14 SSW 23 37 29.4 996 10 16.0934 N/A
4:53 pm 16:53 Cloudy with Light Rain 72 22.2 29 -1.7 20 20 W 23 37 29.46 998 10 16.0934 N/A
5:53 pm 17:53 Partly Cloudy 68 20 37 2.8 32 32 NNW 21 33 29.5 999 10 16.0934 N/A
6:53 pm 18:53 Mostly Cloudy 65 18.3 38 3.3 37 37 NNW 18 30 29.55 1001 10 16.0934 N/A
7:53 pm 19:53 Mostly Cloudy 62 16.7 38 3.3 41 41 NNW 12 19 29.58 1002 10 16.0934 N/A
8:53 pm 20:53 Mostly Clear 56 13.3 39 3.9 53 53 NNW 9 15 29.58 1002 10 16.0934 N/A
9:53 pm 21:53 Clear 51 10.6 38 3.3 61 61 NNE 8 13 29.57 1001 10 16.0934 N/A
10:53 pm 22:53 Clear 50 10 39 3.9 66 66 NNW 6 9 29.54 1000 10 16.0934 N/A
11:53 pm 23:53 Clear 52 11.1 39 3.9 61 61 NNE 3 6 29.51 999 10 16.0934 N/A

Powered by AerisWeather